Regional Weather Roundup
Issued by NWS Upton, NY

Current Version | Previous Version | Text Only | Print | Product List | Glossary Off
Versions: 1 2 3 4 5 6 7 8 9 10 11 12 13 14 15 16 17 18 19 20 21 22 23 24 25 26 27 28 29 30 31 32 33 34 35 36 37 38 39 40 41 42 43 44 45 46 47 48 49 50
000 ASUS41 KOKX 300505 RWROKX REGIONAL WEATHER ROUNDUP NATIONAL WEATHER SERVICE NEW YORK NY 100 AM EDT MON MAY 30 2016 NOTE: "FAIR" INDICATES FEW OR NO CLOUDS BELOW 12,000 FEET WITH NO SIGNIFICANT WEATHER AND/OR OBSTRUCTIONS TO VISIBILITY. NYZ071-072-176-178-NJZ106-104-300600- NEW YORK CITY METRO AREA CITY SKY/WX TMP DP RH WIND PRES REMARKS CENTRAL PARK CLOUDY 71 66 84 CALM 30.07F LAGUARDIA APRT LGT RAIN 71 71 100 S7 30.04F KENNEDY INTL FOG 65 64 97 S14 30.06F VSB 1/2 NEWARK/LIBERTY RAIN 74 70 87 S7 30.03F BRNX BOT. GARD N/A 68 66 94 CALM 30.06F TETERBORO RAIN 73 68 84 CALM 30.03F $$ NYZ177-179-078>081-300600- LONG ISLAND NEW YORK CITY SKY/WX TMP DP RH WIND PRES REMARKS FARMINGDALE CLOUDY 67 65 93 S8 30.06F ISLIP LGT RAIN 67 66 97 S3 30.06F SHIRLEY CLOUDY 67 65 93 S8 30.08F FOG RIVERHEAD N/A 66 66 100 CALM 30.06F WESTHAMPTON CLOUDY 65 64 97 VRB6 30.09F FOG EAST HAMPTON FOG 63 63 99 CALM 30.09F VSB 3/4 MONTAUK POINT N/A 64 64 100 VRB3 30.10F $$ NYZ052-065-067-300600- HUDSON VALLEY CITY SKY/WX TMP DP RH WIND PRES REMARKS WHITE PLAINS LGT RAIN 68 66 93 SE6 30.05F FOG NEWBURGH LGT RAIN 72 70 94 VRB5 30.05S MONTGOMERY LGT RAIN 71 68 90 CALM 30.03F POUGHKEEPSIE CLOUDY 74 67 78 SE6 30.02F ALBANY CLOUDY 71 66 84 S7 29.99F $$ NJZ001-105-106-008-010-013-015-019>022-104-300600- NEW JERSEY CITY SKY/WX TMP DP RH WIND PRES REMARKS NEWARK/LIBERTY RAIN 74 70 87 S7 30.03F TETERBORO RAIN 73 68 84 CALM 30.03F CALDWELL RAIN 73 70 90 SW3 30.05S FOG MORRISTOWN RAIN 72 70 94 SW6 30.05S SOMERVILLE RAIN 66 64 93 SE3 30.03F FOG SUSSEX RAIN 71 64 78 VRB3 30.06R ANDOVER N/A 69 66 90 CALM 30.05F TRENTON LGT RAIN 68 65 90 CALM 30.04F MILLVILLE CLOUDY 72 70 93 VRB3 30.04F ATLANTIC CITY RAIN 71 69 93 S7 30.05F WRIGHTSTOWN CLOUDY 72 70 94 SW5 30.02F TOMS RIVER CLOUDY 72 66 83 S10 30.05F BELMAR CLOUDY 72 70 93 S5 30.06F $$ PAZ047>061-062-071-300600- EASTERN PENNSYLVANIA CITY SKY/WX TMP DP RH WIND PRES REMARKS PHILADELPHIA LGT RAIN 71 68 90 CALM 30.05F FOG ALLENTOWN RAIN 71 68 90 S7 30.05F FOG SCRANTON LGT RAIN 69 64 84 SW6 30.05F $$ CTZ002-004>006-009-010-012-RIZ004-006-007-MAZ004-011-015-300600- SOUTHERN NEW ENGLAND IN CT CITY SKY/WX TMP DP RH WIND PRES REMARKS BRADLEY INTL CLOUDY 71 67 87 S7 30.05F HARTFORD CLOUDY 73 68 84 S7 30.05F DANBURY LGT RAIN 69 66 90 CALM 30.06F WTRBRY/OXFORD N/A 68 64 88 S7 30.09S BRIDGEPORT LGT RAIN 67 65 93 SE6 30.06F FOG MERIDEN CLOUDY 70 66 87 S8 30.06F NEW HAVEN CLOUDY 63 63 100 E5 30.07F FOG CHESTER FOG 66 66 100 SE5 30.09F VSB 1/4 GROTON CLOUDY 63 63 100 E12 30.08F FOG WILLIMANTIC CLOUDY 66 62 87 NE7 30.09S IN RI CITY SKY/WX TMP DP RH WIND PRES REMARKS PROVIDENCE LGT RAIN 57 55 93 NE6 30.12F FOG BLOCK ISLAND LGT RAIN 64 64 100 S7 30.10F VSB 1/2 WESTERLY RAIN 63 60 90 E6 30.10F FOG IN MA CITY SKY/WX TMP DP RH WIND PRES REMARKS BOSTON DRIZZLE 53 52 96 CALM 30.13F FOG WORCESTER FOG 53 52 96 E6 30.11F VSB 1/4 WESTFIELD CLOUDY 64 57 78 N7 30.07F PROVINCETOWN CLOUDY 54 53 97 CALM 30.13S FOG NANTUCKET LGT RAIN 61 59 93 SE8 30.11F VSB 1 $$ ANZ330-335-338-340-345-350-353-355-300600- COASTAL MARINE OBSERVATIONS STATION/POSITION TIME SKY/WX TEMP WIND PRES VSBY WAVE AIR SEA DIR/SP/G HT/PER (UTC) (F) (DEG/KT/KT) (MB) (MI) (FT/S) NY HARB ENTRANCE 0350 60 58 180/ 10/ 10 1017.7 3/ 8 20S FIRE ISLAND 0350 63 62 180/ 12/ 14 1018.1 3/ 8 GREAT SOUTH BAY 0430 65 71 200/ 12/ 14 N/A 23 SSW MONTAUK P 0450 61 59 200/ 8/ 8 1018.2 3/ 8 15 E BARNEGAT LI 0422 61 N/A 3/ 7 HUDSON CANYON 0350 64 60 1019.3 3/ 8 KINGS POINT 0400 67 62 1017.5 EXECUTION ROCKS NOT AVBL CENTRAL LI SOUND 0400 65 110/ 6/ 6 N/A 0 EASTERN LI SOUND 0400 58 56 50/ 4/ 6 N/A ROBBINS REEF 0400 69 160/ 6/ 6 1016.8 $$ >>>>>>>>>>>>>>>>>>>>>>>>>>>> KEY <<<<<<<<<<<<<<<<<<<<<<<<<<< > < > SKY/WX - SKY CONDITION/PRESENT WEATHER < > TMP - TEMPERATURE IN FAHRENHEIT < > DP - DEWPOINT IN FAHRENHEIT < > RH - RELATIVE HUMIDITY IN PERCENT < > WIND - DIRECTION AND SPEED IN MPH < > PRES - MEAN SEA LEVEL PRESSURE IN INCHES OF HG < > WCI - WIND CHILL INDEX < > VSB - VISIBILITY IN MILES < > HX - HEAT INDEX < > TC - TEMPERATURE IN CELSIUS < > VRB - VARIABLE WIND DIRECTION < > < >>>>>>>>>>>>>>>>>>>>>>>>>>>> KEY <<<<<<<<<<<<<<<<<<<<<<<<<<<

USA.gov is the U.S. government's official web portal to all federal, state and local government web resources and services.